TimeEST,TemperatureF,Dew PointF,Humidity,Sea Level PressureIn,VisibilityMPH,Wind Direction,Wind SpeedMPH,Gust SpeedMPH,PrecipitationIn,Events,Conditions,WindDirDegrees,DateUTC
12:54 AM,39.9,33.1,77,30.53,10.0,NE,4.6,-,N/A,,Overcast,40,2012-11-19 05:54:00
1:54 AM,39.9,32.0,73,30.53,10.0,NE,4.6,-,N/A,,Overcast,40,2012-11-19 06:54:00
2:54 AM,37.9,32.0,79,30.52,10.0,NNE,4.6,-,N/A,,Mostly Cloudy,30,2012-11-19 07:54:00
3:10 AM,37.4,32.0,81,30.52,10.0,NNE,5.8,-,N/A,,Scattered Clouds,30,2012-11-19 08:10:00
3:21 AM,37.4,32.0,81,30.51,10.0,NE,5.8,-,N/A,,Mostly Cloudy,40,2012-11-19 08:21:00
3:54 AM,39.0,33.1,79,30.51,10.0,NNE,4.6,-,N/A,,Overcast,20,2012-11-19 08:54:00
4:32 AM,37.4,33.8,87,30.50,10.0,NNE,6.9,-,N/A,,Scattered Clouds,20,2012-11-19 09:32:00
4:54 AM,37.9,32.0,79,30.50,10.0,North,6.9,-,N/A,,Clear,10,2012-11-19 09:54:00
5:54 AM,37.0,32.0,82,30.48,10.0,NNE,4.6,-,N/A,,Clear,30,2012-11-19 10:54:00
6:54 AM,36.0,32.0,86,30.49,10.0,NE,4.6,-,N/A,,Clear,50,2012-11-19 11:54:00
7:54 AM,35.1,32.0,89,30.48,10.0,NNE,5.8,-,N/A,,Clear,20,2012-11-19 12:54:00
8:54 AM,39.9,34.0,79,30.48,10.0,NE,6.9,-,N/A,,Clear,50,2012-11-19 13:54:00
9:54 AM,44.1,35.1,71,30.47,10.0,NE,8.1,-,N/A,,Clear,40,2012-11-19 14:54:00
10:54 AM,48.0,36.0,63,30.44,10.0,Variable,6.9,-,N/A,,Mostly Cloudy,0,2012-11-19 15:54:00
11:54 AM,48.0,37.0,66,30.41,10.0,Variable,3.5,-,N/A,,Overcast,0,2012-11-19 16:54:00
12:54 PM,50.0,37.9,63,30.38,10.0,North,5.8,-,N/A,,Overcast,10,2012-11-19 17:54:00
1:31 PM,51.8,37.4,58,30.36,10.0,NE,4.6,-,N/A,,Scattered Clouds,50,2012-11-19 18:31:00
1:54 PM,51.1,37.9,61,30.35,10.0,Variable,4.6,-,N/A,,Clear,0,2012-11-19 18:54:00
2:54 PM,53.1,37.9,57,30.33,10.0,Calm,Calm,-,N/A,,Clear,0,2012-11-19 19:54:00
3:54 PM,51.1,37.0,59,30.33,10.0,ENE,3.5,-,N/A,,Clear,60,2012-11-19 20:54:00
4:54 PM,46.9,36.0,66,30.32,10.0,Calm,Calm,-,N/A,,Clear,0,2012-11-19 21:54:00
5:54 PM,43.0,34.0,71,30.32,10.0,Calm,Calm,-,N/A,,Clear,0,2012-11-19 22:54:00
6:25 PM,41.0,33.8,76,30.33,10.0,Calm,Calm,-,N/A,,Mostly Cloudy,0,2012-11-19 23:25:00
6:54 PM,44.1,36.0,73,30.32,10.0,Calm,Calm,-,N/A,,Overcast,0,2012-11-19 23:54:00
7:54 PM,46.0,36.0,68,30.31,10.0,NE,4.6,-,N/A,,Overcast,40,2012-11-20 00:54:00
8:54 PM,46.0,35.1,66,30.30,10.0,Calm,Calm,-,N/A,,Overcast,0,2012-11-20 01:54:00
10:54 PM,43.0,35.1,74,30.26,10.0,Calm,Calm,-,N/A,,Overcast,0,2012-11-20 03:54:00
11:54 PM,42.1,35.1,76,30.25,10.0,Calm,Calm,-,N/A,,Overcast,0,2012-11-20 04:54:00